| time (UTC) | temp F | wind direction | speed knots | gust knots | rain 1hr in | rain 24hr in | rain mn in | humidity % | barometer mb |
| 20260507192703 | 53 | 198 | 0.0 | 1.7 | 0.00 | 0.00 | 0.00 | 74 | 1014.2 |
| 20260507191803 | 53 | 198 | 0.0 | 1.7 | 0.00 | 0.00 | 0.00 | 73 | 1014.2 |
| 20260507190903 | 53 | 0 | 0.0 | 0.9 | 0.00 | 0.00 | 0.00 | 73 | 1014.2 |
| 20260507190004 | 54 | 198 | 0.9 | 2.6 | 0.00 | 0.00 | 0.00 | 74 | 1014.2 |
| 20260507185403 | 54 | 197 | 0.0 | 1.7 | 0.00 | 0.00 | 0.00 | 74 | 1014.2 |
| 20260507184503 | 54 | 197 | 0.0 | 1.7 | 0.00 | 0.00 | 0.00 | 73 | 1014.2 |
| 20260507183603 | 54 | 194 | 0.9 | 2.6 | 0.00 | 0.00 | 0.00 | 72 | 1014.1 |
| 20260507182703 | 54 | 192 | 0.9 | 1.7 | 0.00 | 0.00 | 0.00 | 72 | 1014.0 |
| 20260507181803 | 54 | 0 | 0.0 | 1.7 | 0.00 | 0.00 | 0.00 | 72 | 1013.9 |
| 20260507180903 | 54 | 191 | 0.0 | 2.6 | 0.00 | 0.00 | 0.00 | 71 | 1013.9 |
| 20260507180003 | 54 | 198 | 0.0 | 1.7 | 0.00 | 0.00 | 0.00 | 71 | 1013.9 |
| 20260507175617 | 54 | 198 | 0.0 | 1.7 | 0.00 | 0.00 | 0.00 | 71 | 1013.9 |
| 20260507174503 | 55 | 191 | 0.0 | 2.6 | 0.00 | 0.00 | 0.00 | 70 | 1013.9 |
| 20260507173816 | 55 | 193 | 0.9 | 2.6 | 0.00 | 0.00 | 0.00 | 68 | 1013.9 |
| 20260507172703 | 56 | 192 | 2.6 | 5.2 | 0.00 | 0.00 | 0.00 | 61 | 1013.8 |
| 20260507171803 | 56 | 198 | 1.7 | 4.3 | 0.00 | 0.00 | 0.00 | 62 | 1013.8 |
| 20260507171116 | 57 | 167 | 2.6 | 4.3 | 0.00 | 0.00 | 0.00 | 60 | 1013.8 |
| 20260507170003 | 57 | 187 | 3.5 | 11.3 | 0.00 | 0.00 | 0.00 | 58 | 1013.8 |
| 20260507165403 | 58 | 182 | 3.5 | 6.1 | 0.00 | 0.00 | 0.00 | 58 | 1013.8 |
| 20260507164503 | 58 | 165 | 3.5 | 5.2 | 0.00 | 0.00 | 0.00 | 57 | 1013.7 |
| 20260507163603 | 58 | 181 | 3.5 | 7.8 | 0.00 | 0.00 | 0.00 | 56 | 1013.7 |
| 20260507162703 | 58 | 158 | 3.5 | 7.8 | 0.00 | 0.00 | 0.00 | 56 | 1013.7 |
| 20260507161803 | 58 | 186 | 3.5 | 9.6 | 0.00 | 0.00 | 0.00 | 55 | 1013.7 |
| 20260507161118 | 59 | 169 | 2.6 | 7.0 | 0.00 | 0.00 | 0.00 | 54 | 1013.8 |
| 20260507160003 | 59 | 147 | 2.6 | 7.0 | 0.00 | 0.00 | 0.00 | 55 | 1013.8 |
| 20260507155403 | 59 | 160 | 2.6 | 7.0 | 0.00 | 0.00 | 0.00 | 54 | 1013.8 |
| 20260507154503 | 58 | 173 | 1.7 | 6.1 | 0.00 | 0.00 | 0.00 | 57 | 1013.9 |
| 20260507153818 | 58 | 185 | 1.7 | 3.5 | 0.00 | 0.00 | 0.00 | 57 | 1013.9 |
| 20260507152703 | 57 | 198 | 1.7 | 3.5 | 0.00 | 0.00 | 0.00 | 58 | 1014.0 |
| 20260507151803 | 57 | 170 | 2.6 | 7.0 | 0.00 | 0.00 | 0.00 | 58 | 1014.0 |
| 20260507150903 | 58 | 152 | 3.5 | 7.8 | 0.00 | 0.00 | 0.00 | 56 | 1014.0 |
| 20260507150217 | 58 | 186 | 2.6 | 7.8 | 0.00 | 0.00 | 0.00 | 55 | 1014.0 |
| 20260507145403 | 59 | 164 | 2.6 | 8.7 | 0.00 | 0.00 | 0.00 | 55 | 1014.1 |
| 20260507144503 | 60 | 152 | 3.5 | 7.0 | 0.00 | 0.00 | 0.00 | 55 | 1014.2 |
| 20260507143603 | 60 | 169 | 3.5 | 7.8 | 0.00 | 0.00 | 0.00 | 54 | 1014.3 |
| 20260507142703 | 60 | 178 | 3.5 | 12.2 | 0.00 | 0.00 | 0.00 | 54 | 1014.4 |
| 20260507141803 | 61 | 183 | 3.5 | 6.1 | 0.00 | 0.00 | 0.00 | 52 | 1014.6 |
| 20260507140903 | 61 | 173 | 2.6 | 9.6 | 0.00 | 0.00 | 0.00 | 52 | 1014.6 |
| 20260507140003 | 61 | 150 | 2.6 | 6.1 | 0.00 | 0.00 | 0.00 | 53 | 1014.6 |
| 20260507135618 | 60 | 164 | 2.6 | 7.8 | 0.00 | 0.00 | 0.00 | 52 | 1014.7 |
| 20260507134503 | 60 | 177 | 2.6 | 5.2 | 0.00 | 0.00 | 0.00 | 53 | 1014.8 |
| 20260507133603 | 60 | 178 | 3.5 | 8.7 | 0.00 | 0.00 | 0.00 | 55 | 1014.8 |
| 20260507132703 | 60 | 158 | 3.5 | 7.8 | 0.00 | 0.00 | 0.00 | 53 | 1014.9 |
| 20260507131803 | 60 | 157 | 3.5 | 7.0 | 0.00 | 0.00 | 0.00 | 54 | 1014.9 |
| 20260507130903 | 60 | 157 | 3.5 | 7.8 | 0.00 | 0.00 | 0.00 | 54 | 1014.9 |
| 20260507130003 | 59 | 160 | 3.5 | 8.7 | 0.00 | 0.00 | 0.00 | 56 | 1015.0 |
| 20260507125403 | 59 | 178 | 3.5 | 8.7 | 0.00 | 0.00 | 0.00 | 56 | 1015.1 |
| 20260507124503 | 59 | 167 | 4.3 | 7.0 | 0.00 | 0.00 | 0.00 | 57 | 1015.1 |
| 20260507123603 | 59 | 166 | 3.5 | 7.0 | 0.00 | 0.00 | 0.00 | 56 | 1015.1 |
| 20260507122918 | 58 | 174 | 3.5 | 9.6 | 0.00 | 0.00 | 0.00 | 56 | 1015.1 |
| 20260507121803 | 58 | 173 | 3.5 | 8.7 | 0.00 | 0.00 | 0.00 | 56 | 1015.1 |
| 20260507120903 | 57 | 161 | 3.5 | 8.7 | 0.00 | 0.00 | 0.00 | 62 | 1015.2 |
| 20260507120004 | 56 | 154 | 3.5 | 6.1 | 0.00 | 0.00 | 0.00 | 64 | 1015.2 |
| 20260507115617 | 56 | 157 | 3.5 | 8.7 | 0.00 | 0.00 | 0.00 | 64 | 1015.2 |
| 20260507114717 | 55 | 158 | 3.5 | 7.0 | 0.00 | 0.00 | 0.00 | 66 | 1015.3 |
| 20260507113603 | 53 | 159 | 4.3 | 7.8 | 0.00 | 0.00 | 0.00 | 69 | 1015.4 |
| 20260507112703 | 53 | 156 | 3.5 | 7.8 | 0.00 | 0.00 | 0.00 | 70 | 1015.4 |
| 20260507112017 | 52 | 153 | 3.5 | 7.8 | 0.00 | 0.00 | 0.00 | 71 | 1015.4 |
| 20260507110903 | 52 | 159 | 2.6 | 7.0 | 0.00 | 0.00 | 0.00 | 71 | 1015.5 |
| 20260507110003 | 51 | 150 | 2.6 | 6.1 | 0.00 | 0.00 | 0.00 | 73 | 1015.5 |
| 20260507105403 | 51 | 146 | 2.6 | 3.5 | 0.00 | 0.00 | 0.00 | 73 | 1015.6 |
| 20260507104503 | 50 | 150 | 3.5 | 7.8 | 0.00 | 0.00 | 0.00 | 74 | 1015.7 |
| 20260507103603 | 51 | 150 | 2.6 | 6.1 | 0.00 | 0.00 | 0.00 | 73 | 1015.7 |
| 20260507102703 | 50 | 154 | 3.5 | 7.0 | 0.00 | 0.00 | 0.00 | 75 | 1015.7 |
| 20260507101803 | 50 | 159 | 3.5 | 7.8 | 0.00 | 0.00 | 0.00 | 74 | 1015.7 |
| 20260507100903 | 50 | 158 | 3.5 | 7.0 | 0.00 | 0.00 | 0.00 | 75 | 1015.7 |
| 20260507100003 | 49 | 158 | 2.6 | 5.2 | 0.00 | 0.00 | 0.00 | 77 | 1015.7 |
| 20260507095403 | 49 | 152 | 3.5 | 6.1 | 0.00 | 0.00 | 0.00 | 78 | 1015.7 |
| 20260507094503 | 48 | 166 | 3.5 | 7.0 | 0.00 | 0.00 | 0.00 | 78 | 1015.7 |
| 20260507093817 | 48 | 146 | 3.5 | 7.0 | 0.00 | 0.00 | 0.00 | 79 | 1015.7 |
| 20260507092703 | 47 | 148 | 3.5 | 6.1 | 0.00 | 0.00 | 0.00 | 80 | 1015.7 |
| 20260507091803 | 47 | 161 | 2.6 | 6.1 | 0.00 | 0.00 | 0.00 | 81 | 1015.7 |
| 20260507090903 | 47 | 155 | 2.6 | 6.1 | 0.00 | 0.00 | 0.00 | 81 | 1015.7 |
| 20260507090004 | 47 | 144 | 2.6 | 7.0 | 0.00 | 0.00 | 0.00 | 81 | 1015.6 |
| 20260507085403 | 47 | 161 | 2.6 | 6.1 | 0.00 | 0.00 | 0.00 | 81 | 1015.6 |
| 20260507084503 | 47 | 154 | 3.5 | 6.1 | 0.00 | 0.00 | 0.00 | 82 | 1015.5 |
| 20260507083603 | 46 | 152 | 3.5 | 4.3 | 0.00 | 0.00 | 0.00 | 82 | 1015.5 |
| 20260507082916 | 46 | 157 | 2.6 | 6.1 | 0.00 | 0.00 | 0.00 | 82 | 1015.6 |
| 20260507081803 | 46 | 147 | 3.5 | 6.1 | 0.00 | 0.00 | 0.00 | 82 | 1015.6 |
| 20260507080903 | 46 | 141 | 2.6 | 3.5 | 0.00 | 0.00 | 0.00 | 83 | 1015.6 |
| 20260507080216 | 46 | 154 | 2.6 | 5.2 | 0.00 | 0.00 | 0.00 | 83 | 1015.6 |
| 20260507075403 | 46 | 155 | 2.6 | 5.2 | 0.00 | 0.00 | 0.00 | 83 | 1015.6 |
| 20260507074717 | 46 | 148 | 2.6 | 3.5 | 0.00 | 0.00 | 0.00 | 83 | 1015.5 |
| 20260507073603 | 46 | 152 | 2.6 | 8.7 | 0.00 | 0.00 | 0.00 | 83 | 1015.5 |
| 20260507072703 | 46 | 151 | 3.5 | 7.8 | 0.00 | 0.00 | 0.00 | 83 | 1015.4 |
| 20260507071803 | 46 | 149 | 3.5 | 6.1 | 0.00 | 0.00 | 0.00 | 83 | 1015.4 |
| 20260507071116 | 46 | 150 | 2.6 | 7.0 | 0.00 | 0.00 | 0.00 | 83 | 1015.4 |
| 20260507070007 | 46 | 150 | 2.6 | 6.1 | 0.00 | 0.00 | 0.00 | 83 | 1015.4 |
| 20260507065403 | 46 | 148 | 2.6 | 6.1 | 0.00 | 0.00 | 0.00 | 83 | 1015.4 |
| 20260507064717 | 45 | 159 | 2.6 | 5.2 | 0.00 | 0.00 | 0.00 | 84 | 1015.3 |
| 20260507063603 | 45 | 151 | 2.6 | 4.3 | 0.00 | 0.00 | 0.00 | 84 | 1015.3 |
| 20260507062703 | 45 | 163 | 2.6 | 6.1 | 0.00 | 0.00 | 0.00 | 84 | 1015.3 |
| 20260507061803 | 45 | 151 | 2.6 | 5.2 | 0.00 | 0.00 | 0.00 | 84 | 1015.3 |
| 20260507060903 | 45 | 154 | 3.5 | 5.2 | 0.00 | 0.00 | 0.00 | 85 | 1015.3 |
| 20260507060003 | 44 | 159 | 2.6 | 7.0 | 0.00 | 0.00 | 0.00 | 85 | 1015.2 |
| 20260507055403 | 44 | 145 | 2.6 | 5.2 | 0.00 | 0.00 | 0.00 | 85 | 1015.2 |
| 20260507054503 | 44 | 150 | 2.6 | 5.2 | 0.00 | 0.00 | 0.00 | 85 | 1015.2 |
| 20260507053603 | 44 | 164 | 3.5 | 5.2 | 0.00 | 0.00 | 0.00 | 84 | 1015.2 |
| 20260507052703 | 44 | 164 | 3.5 | 5.2 | 0.00 | 0.00 | 0.00 | 84 | 1015.1 |
| 20260507051803 | 44 | 151 | 3.5 | 7.0 | 0.00 | 0.00 | 0.00 | 84 | 1015.1 |
| 20260507050903 | 44 | 152 | 3.5 | 6.1 | 0.00 | 0.00 | 0.00 | 84 | 1015.1 |
| 20260507050003 | 44 | 165 | 3.5 | 7.0 | 0.00 | 0.00 | 0.00 | 84 | 1015.1 |
| 20260507045403 | 44 | 154 | 3.5 | 7.0 | 0.00 | 0.00 | 0.00 | 84 | 1015.1 |
| 20260507044503 | 44 | 161 | 3.5 | 7.8 | 0.00 | 0.00 | 0.00 | 84 | 1015.1 |
| 20260507043817 | 44 | 152 | 2.6 | 6.1 | 0.00 | 0.00 | 0.00 | 85 | 1015.1 |
| 20260507042703 | 44 | 154 | 2.6 | 3.5 | 0.00 | 0.00 | 0.00 | 84 | 1015.2 |
| 20260507041803 | 44 | 151 | 2.6 | 5.2 | 0.00 | 0.00 | 0.00 | 84 | 1015.2 |
| 20260507040903 | 44 | 146 | 2.6 | 6.1 | 0.00 | 0.00 | 0.00 | 84 | 1015.2 |
| 20260507040003 | 44 | 166 | 3.5 | 6.1 | 0.00 | 0.00 | 0.00 | 84 | 1015.2 |
| 20260507035616 | 44 | 160 | 3.5 | 7.0 | 0.00 | 0.00 | 0.00 | 84 | 1015.2 |
| 20260507034503 | 44 | 156 | 2.6 | 5.2 | 0.00 | 0.00 | 0.00 | 84 | 1015.2 |
| 20260507033603 | 43 | 150 | 2.6 | 6.1 | 0.00 | 0.00 | 0.00 | 84 | 1015.2 |
| 20260507032703 | 43 | 145 | 2.6 | 5.2 | 0.00 | 0.00 | 0.00 | 84 | 1015.2 |
| 20260507031803 | 43 | 152 | 2.6 | 5.2 | 0.00 | 0.00 | 0.00 | 84 | 1015.3 |
| 20260507030903 | 43 | 148 | 3.5 | 6.1 | 0.00 | 0.00 | 0.00 | 84 | 1015.3 |
| 20260507030003 | 43 | 151 | 1.7 | 5.2 | 0.00 | 0.00 | 0.00 | 84 | 1015.4 |
| 20260507025403 | 43 | 152 | 1.7 | 4.3 | 0.00 | 0.00 | 0.00 | 84 | 1015.4 |
| 20260507024717 | 43 | 154 | 2.6 | 5.2 | 0.00 | 0.00 | 0.00 | 83 | 1015.3 |
| 20260507023603 | 43 | 171 | 1.7 | 4.3 | 0.00 | 0.00 | 0.00 | 83 | 1015.4 |
| 20260507022918 | 44 | 144 | 1.7 | 3.5 | 0.00 | 0.00 | 0.00 | 83 | 1015.4 |
| 20260507021803 | 44 | 172 | 0.9 | 2.6 | 0.00 | 0.00 | 0.00 | 82 | 1015.4 |
| 20260507021117 | 44 | 162 | 1.7 | 3.5 | 0.00 | 0.00 | 0.00 | 82 | 1015.3 |
| 20260507020003 | 44 | 150 | 2.6 | 4.3 | 0.00 | 0.00 | 0.00 | 81 | 1015.3 |
| 20260507015403 | 44 | 150 | 3.5 | 7.0 | 0.00 | 0.00 | 0.00 | 81 | 1015.4 |
| 20260507014503 | 45 | 165 | 2.6 | 5.2 | 0.00 | 0.00 | 0.00 | 81 | 1015.4 |
| 20260507013603 | 45 | 151 | 2.6 | 6.1 | 0.00 | 0.00 | 0.00 | 81 | 1015.4 |
| 20260507012703 | 45 | 160 | 2.6 | 5.2 | 0.00 | 0.00 | 0.00 | 80 | 1015.4 |
| 20260507011803 | 45 | 150 | 3.5 | 5.2 | 0.00 | 0.00 | 0.00 | 80 | 1015.5 |
| 20260507010903 | 45 | 154 | 3.5 | 7.0 | 0.00 | 0.00 | 0.00 | 80 | 1015.5 |
| 20260507010003 | 45 | 159 | 2.6 | 7.8 | 0.00 | 0.00 | 0.00 | 80 | 1015.6 |
| 20260507005403 | 46 | 151 | 2.6 | 4.3 | 0.00 | 0.00 | 0.00 | 80 | 1015.6 |
| 20260507004503 | 46 | 152 | 2.6 | 6.1 | 0.00 | 0.00 | 0.00 | 80 | 1015.7 |
| 20260507003603 | 46 | 141 | 2.6 | 6.1 | 0.00 | 0.00 | 0.00 | 79 | 1015.7 |
| 20260507002703 | 46 | 152 | 2.6 | 6.1 | 0.00 | 0.00 | 0.00 | 79 | 1015.8 |
| 20260507001803 | 46 | 150 | 2.6 | 4.3 | 0.00 | 0.00 | 0.00 | 79 | 1015.8 |
| 20260507000903 | 46 | 152 | 3.5 | 8.7 | 0.00 | 0.00 | 0.00 | 78 | 1015.8 |
| 20260507000003 | 46 | 158 | 2.6 | 5.2 | 0.00 | 0.00 | 0.00 | 78 | 1015.8 |
| 20260506235403 | 46 | 148 | 2.6 | 5.2 | 0.00 | 0.00 | 0.00 | 78 | 1015.7 |
| 20260506234503 | 46 | 153 | 2.6 | 7.0 | 0.00 | 0.00 | 0.00 | 77 | 1015.7 |
| 20260506233603 | 47 | 159 | 2.6 | 6.1 | 0.00 | 0.00 | 0.00 | 77 | 1015.7 |
| 20260506232703 | 47 | 149 | 3.5 | 6.1 | 0.00 | 0.00 | 0.00 | 76 | 1015.7 |
| 20260506231803 | 47 | 162 | 3.5 | 7.0 | 0.00 | 0.00 | 0.00 | 75 | 1015.6 |
| 20260506230903 | 47 | 150 | 3.5 | 8.7 | 0.00 | 0.00 | 0.00 | 75 | 1015.6 |
| 20260506230003 | 47 | 153 | 2.6 | 5.2 | 0.00 | 0.00 | 0.00 | 75 | 1015.6 |
| 20260506225403 | 47 | 155 | 2.6 | 7.0 | 0.00 | 0.00 | 0.00 | 75 | 1015.5 |
| 20260506224503 | 47 | 162 | 2.6 | 5.2 | 0.00 | 0.00 | 0.00 | 75 | 1015.5 |
| 20260506223603 | 47 | 169 | 2.6 | 6.1 | 0.00 | 0.00 | 0.00 | 74 | 1015.5 |
| 20260506222916 | 47 | 163 | 2.6 | 7.8 | 0.00 | 0.00 | 0.00 | 74 | 1015.4 |
| 20260506221803 | 48 | 164 | 2.6 | 3.5 | 0.00 | 0.00 | 0.00 | 73 | 1015.3 |
| 20260506220903 | 48 | 162 | 2.6 | 6.1 | 0.00 | 0.00 | 0.00 | 73 | 1015.3 |
| 20260506220003 | 48 | 161 | 1.7 | 5.2 | 0.00 | 0.00 | 0.00 | 72 | 1015.2 |
| 20260506215403 | 48 | 153 | 1.7 | 6.1 | 0.00 | 0.00 | 0.00 | 71 | 1015.2 |
| 20260506214717 | 49 | 159 | 2.6 | 7.0 | 0.00 | 0.00 | 0.00 | 71 | 1015.2 |
| 20260506213817 | 49 | 160 | 1.7 | 6.1 | 0.00 | 0.00 | 0.00 | 70 | 1015.2 |
| 20260506212703 | 49 | 175 | 1.7 | 5.2 | 0.00 | 0.00 | 0.00 | 70 | 1015.2 |
| 20260506212017 | 49 | 146 | 1.7 | 4.3 | 0.00 | 0.00 | 0.00 | 69 | 1015.2 |
| 20260506210903 | 49 | 165 | 1.7 | 4.3 | 0.00 | 0.00 | 0.00 | 68 | 1015.2 |
| 20260506210003 | 50 | 154 | 2.6 | 5.2 | 0.00 | 0.00 | 0.00 | 67 | 1015.1 |
| 20260506205403 | 50 | 154 | 2.6 | 6.1 | 0.00 | 0.00 | 0.00 | 67 | 1015.1 |
| 20260506204503 | 50 | 138 | 1.7 | 3.5 | 0.00 | 0.00 | 0.00 | 66 | 1015.1 |
| 20260506203818 | 50 | 156 | 2.6 | 5.2 | 0.00 | 0.00 | 0.00 | 65 | 1015.0 |
| 20260506202703 | 50 | 154 | 2.6 | 5.2 | 0.00 | 0.00 | 0.00 | 64 | 1014.9 |
| 20260506201803 | 50 | 142 | 1.7 | 4.3 | 0.00 | 0.00 | 0.00 | 63 | 1014.8 |
| 20260506200903 | 50 | 163 | 1.7 | 3.5 | 0.00 | 0.00 | 0.00 | 62 | 1014.7 |
| 20260506200003 | 51 | 186 | 1.7 | 5.2 | 0.00 | 0.00 | 0.00 | 61 | 1014.6 |
| 20260506195403 | 51 | 139 | 2.6 | 4.3 | 0.00 | 0.00 | 0.00 | 60 | 1014.5 |
| 20260506194503 | 51 | 137 | 1.7 | 4.3 | 0.00 | 0.00 | 0.00 | 59 | 1014.4 |
| 20260506193603 | 51 | 137 | 1.7 | 4.3 | 0.00 | 0.00 | 0.00 | 57 | 1014.4 |